Find Starlink 35611

NORAD ID: 66427 Int'l Des: 2025-259 Owner: SPXS Country: US Constellation: starlink operational
LEOCIRCULAR

Current View

Loading 3D Globe...

About Starlink 35611

Description loading...

Upcoming Passes

Passes for default location (London). Set your location on the main map for personalized predictions.

Altitude History

Loading altitude history...

Two-Line Element Set

1 66427U 25259F 26145.46599294 .00008703 00000-0 32532-3 0 9990
2 66427 43.0047 200.7225 0001093 279.2916 80.7812 15.27587551 31233
Epoch: May 25, 2026 • Age: 19 hours

Current Status

Altitude 494.8 km
Velocity 7.62 km/s
Sub-Earth Point -41.30°S, 157.7°E
Launch Date Nov 11, 2025
Age 0.5 years
Type internet

Technical Details

Classification Payload
Mass 575.00 kg
Dry Mass 530.00 kg
Total Mass 575.00 kg
Length 0.30 m
Diameter 4.10 m
Span 29.00 m
Shape Box + pan
Manufacturer SPXS
Bus Type Starlink V2MO
Phase Status In Orbit
Owner/State SPXS/US

Most Searched